Location: Baggettsville
(36.4767°N, 86.7303°W)
Time: 11:20:10
(UTC+00:00)

Envisat - Visible Passes

Search period start: 17 September 2021 00:00
Search period end: 27 September 2021 00:00
Orbit: 764 x 766 km, 98.2° (Epoch: 17 September)

Date Brightness Start Highest point End Pass type
(mag) Time Alt. Az. Time Alt. Az. Time Alt. Az.
17 Sep 3.7 10:39:47 10° NNE 10:44:48 58° E 10:49:47 10° S visible
18 Sep 5.3 10:03:41 10° NE 10:07:48 24° E 10:11:53 10° SSE visible
19 Sep 3.0 11:05:03 10° N 11:10:08 78° WNW 11:15:12 10° SSW visible
20 Sep 4.3 10:28:25 10° NNE 10:33:16 44° E 10:38:05 10° S visible
21 Sep 5.7 09:52:39 10° NE 09:56:13 19° E 09:59:45 10° SE visible
22 Sep 3.2 10:53:32 10° NNE 10:58:38 81° ESE 11:03:43 10° S visible
23 Sep 4.8 10:17:06 10° NNE 10:21:43 34° E 10:26:17 10° SSE visible
24 Sep 5.9 09:41:52 10° ENE 09:44:36 14° E 09:47:20 10° SE visible
25 Sep 3.6 10:42:04 10° NNE 10:47:08 63° E 10:52:08 10° S visible
26 Sep 5.2 10:05:53 10° NE 10:10:09 26° E 10:14:22 10° SSE visible
